Hauptseite
METAR-TAF:

METAR-TAF

Flughäfen :

Militärflugplatz Payerne

Payerne, Schweiz

Breite: 46-49N, Länge: 006-57E, Höhe: 490 m

Beobachtung

Neuester Wetterbericht von vor 32 Minuten, um 03:20 UTC
Wind 1 kt aus unterschiedlichen Richtungen
Temperatur 13°C
Luftfeuchtigkeit 94%
Luftdruck 1021 hPa
Sichtweite 10 km oder mehr
Leicht bewölkt in der Höhe von 21000 ft

METAR: LSMP 190320Z AUTO VRB01KT 9999NDV FEW210 13/12 Q1021 RMK

Zeit: 05:52 (03:52 UTC)


TAF: fehlend

Wetterbeobachtungen und Prognosen von mehr als 4000 Flughäfen (METAR und TAF Bericht).

Die verfügbaren Stationen werden durch gelbe und rote Markierungen auf der Karte dargestellt.

Führen Sie die Maus auf sie, um den Namen der Station zu sehen.

Darauf klicken, um die Beobachtung von Wetterbeobachtungen und Prognosen zu sehen.

Um die Karte zu ändern : klicken Sie auf den grünen Tasten mit einem schwarzen Kreuz Zum Vergrößern, auf den grünen Button mit einem Gedankenstrich zu verkleinern, oder auf die grünen Pfeile für benachbarte Karten.


METAR-TAF: